| time (UTC) | temp F | wind direction | speed MPH | gust MPH | rain 1hr in | rain 24hr in | rain mn in | humidity % | barometer mb |
| 20260831053516 | 66 | 113 | 8.0 | 15.0 | 0.00 | 0.17 | 0.17 | 45 | 1019.4 |
| 20260831052517 | 65 | 90 | 9.0 | 15.0 | 0.00 | 0.17 | 0.17 | 49 | 1019.1 |
| 20260831051516 | 65 | 90 | 7.0 | 11.0 | 0.00 | 0.17 | 0.17 | 50 | 1019.1 |
| 20260831050516 | 65 | 113 | 9.0 | 15.0 | 0.00 | 0.17 | 0.17 | 51 | 1018.9 |
| 20260831045517 | 65 | 113 | 12.0 | 18.0 | 0.00 | 0.17 | 0.17 | 51 | 1018.7 |
| 20260831044516 | 65 | 113 | 12.0 | 21.0 | 0.00 | 0.17 | 0.17 | 54 | 1018.7 |
| 20260831043517 | 66 | 113 | 13.0 | 18.0 | 0.00 | 0.17 | 0.17 | 53 | 1018.7 |
| 20260831042516 | 66 | 113 | 11.0 | 17.0 | 0.00 | 0.17 | 0.17 | 53 | 1018.6 |
| 20260831041516 | 66 | 113 | 11.0 | 17.0 | 0.00 | 0.17 | 0.17 | 57 | 1018.7 |
| 20260831040537 | 65 | 113 | 10.0 | 17.0 | 0.00 | 0.17 | 0.17 | 58 | 1018.4 |
| 20260831035517 | 65 | 113 | 12.0 | 19.0 | 0.00 | 0.17 | 0.17 | 60 | 1018.2 |
| 20260831034517 | 65 | 113 | 10.0 | 17.0 | 0.00 | 0.17 | 0.17 | 60 | 1018.1 |
| 20260831033517 | 66 | 113 | 10.0 | 18.0 | 0.00 | 0.17 | 0.17 | 61 | 1018.0 |
| 20260831032536 | 66 | 113 | 12.0 | 18.0 | 0.00 | 0.17 | 0.17 | 61 | 1017.8 |
| 20260831031517 | 67 | 113 | 9.0 | 16.0 | 0.00 | 0.17 | 0.17 | 58 | 1017.7 |
| 20260831030517 | 67 | 113 | 9.0 | 14.0 | 0.00 | 0.17 | 0.17 | 59 | 1017.6 |
| 20260831025517 | 67 | 113 | 11.0 | 18.0 | 0.00 | 0.17 | 0.17 | 60 | 1017.1 |
| 20260831024516 | 67 | 113 | 12.0 | 16.0 | 0.00 | 0.17 | 0.17 | 63 | 1017.0 |
| 20260831023517 | 67 | 113 | 10.0 | 16.0 | 0.00 | 0.17 | 0.17 | 63 | 1017.0 |
| 20260831022516 | 68 | 113 | 11.0 | 15.0 | 0.00 | 0.17 | 0.17 | 63 | 1017.0 |
| 20260831021516 | 68 | 113 | 10.0 | 15.0 | 0.00 | 0.17 | 0.17 | 60 | 1016.9 |
| 20260831020516 | 69 | 113 | 7.0 | 13.0 | 0.00 | 0.17 | 0.17 | 62 | 1017.1 |
| 20260831015536 | 70 | 113 | 8.0 | 13.0 | 0.00 | 0.17 | 0.17 | 56 | 1017.1 |
| 20260831014537 | 71 | 135 | 3.0 | 11.0 | 0.00 | 0.17 | 0.17 | 58 | 1017.4 |
| 20260831013517 | 71 | 113 | 6.0 | 11.0 | 0.00 | 0.17 | 0.17 | 60 | 1017.1 |
| 20260831012517 | 72 | 113 | 9.0 | 13.0 | 0.00 | 0.17 | 0.17 | 58 | 1017.5 |
| 20260831011516 | 72 | 90 | 7.0 | 12.0 | 0.00 | 0.19 | 0.17 | 56 | 1017.4 |
| 20260831010516 | 73 | 113 | 8.0 | 13.0 | 0.00 | 0.20 | 0.17 | 56 | 1017.6 |
| 20260831005517 | 74 | 113 | 5.0 | 12.0 | 0.00 | 0.20 | 0.17 | 54 | 1017.5 |
| 20260831004516 | 74 | 113 | 4.0 | 9.0 | 0.00 | 0.20 | 0.17 | 49 | 1017.6 |
| 20260831003517 | 73 | 113 | 5.0 | 12.0 | 0.00 | 0.20 | 0.17 | 51 | 1017.2 |
| 20260831002517 | 74 | 113 | 5.0 | 14.0 | 0.00 | 0.20 | 0.17 | 50 | 1017.3 |
| 20260831001528 | 73 | 113 | 6.0 | 11.0 | 0.00 | 0.20 | 0.17 | 52 | 1017.3 |
| 20260831000516 | 74 | 113 | 8.0 | 14.0 | 0.00 | 0.20 | 0.17 | 50 | 1017.1 |
| 20260830235517 | 74 | 113 | 4.0 | 10.0 | 0.00 | 0.20 | 0.17 | 48 | 1018.9 |
| 20260830234517 | 75 | 158 | 4.0 | 8.0 | 0.00 | 0.20 | 0.17 | 47 | 1019.0 |
| 20260830233516 | 74 | 90 | 6.0 | 11.0 | 0.00 | 0.20 | 0.17 | 51 | 1019.1 |
| 20260830232516 | 73 | 113 | 4.0 | 8.0 | 0.00 | 0.20 | 0.17 | 55 | 1018.3 |
| 20260830231517 | 74 | 113 | 2.0 | 6.0 | 0.00 | 0.20 | 0.17 | 50 | 1018.3 |
| 20260830230516 | 75 | 0.0 | 4.0 | 0.00 | 0.20 | 0.17 | 50 | 1018.1 | |
| 20260830225517 | 75 | 135 | 1.0 | 4.0 | 0.00 | 0.20 | 0.17 | 47 | 1018.5 |
| 20260830224517 | 75 | 135 | 2.0 | 6.0 | 0.00 | 0.20 | 0.17 | 48 | 1018.4 |
| 20260830223516 | 76 | 135 | 3.0 | 6.0 | 0.00 | 0.20 | 0.17 | 49 | 1019.0 |
| 20260830222517 | 75 | 203 | 3.0 | 7.0 | 0.00 | 0.20 | 0.17 | 49 | 1018.1 |
| 20260830221516 | 75 | 158 | 4.0 | 8.0 | 0.00 | 0.20 | 0.17 | 49 | 1018.2 |
| 20260830220516 | 75 | 158 | 4.0 | 7.0 | 0.00 | 0.20 | 0.17 | 50 | 1018.3 |
| 20260830215536 | 75 | 135 | 1.0 | 4.0 | 0.00 | 0.20 | 0.17 | 49 | 1018.3 |
| 20260830214516 | 73 | 158 | 4.0 | 8.0 | 0.00 | 0.20 | 0.17 | 52 | 1018.4 |
| 20260830213516 | 73 | 158 | 2.0 | 5.0 | 0.00 | 0.20 | 0.17 | 54 | 1018.4 |
| 20260830212516 | 73 | 158 | 3.0 | 6.0 | 0.00 | 0.20 | 0.17 | 53 | 1018.7 |
| 20260830211517 | 73 | 0.0 | 0.0 | 0.00 | 0.20 | 0.17 | 57 | 1018.9 | |
| 20260830210517 | 72 | 0.0 | 0.0 | 0.00 | 0.20 | 0.17 | 59 | 1018.7 | |
| 20260830205657 | 72 | 0.0 | 2.0 | 0.00 | 0.20 | 0.17 | 57 | 1019.0 | |
| 20260830204517 | 72 | 315 | 2.0 | 4.0 | 0.00 | 0.20 | 0.17 | 59 | 1019.1 |
| 20260830203516 | 74 | 315 | 4.0 | 9.0 | 0.00 | 0.20 | 0.17 | 58 | 1019.6 |
| 20260830202516 | 74 | 315 | 4.0 | 7.0 | 0.00 | 0.20 | 0.17 | 52 | 1019.2 |
| 20260830201516 | 73 | 315 | 6.0 | 10.0 | 0.00 | 0.20 | 0.17 | 54 | 1018.9 |
| 20260830200517 | 74 | 315 | 6.0 | 12.0 | 0.00 | 0.20 | 0.17 | 54 | 1019.3 |
| 20260830195517 | 76 | 338 | 5.0 | 10.0 | 0.00 | 0.20 | 0.17 | 52 | 1019.7 |
| 20260830194517 | 77 | 293 | 2.0 | 6.0 | 0.00 | 0.20 | 0.17 | 48 | 1020.1 |
| 20260830193517 | 76 | 315 | 4.0 | 9.0 | 0.00 | 0.20 | 0.17 | 46 | 1019.7 |
| 20260830192516 | 76 | 248 | 4.0 | 8.0 | 0.00 | 0.20 | 0.17 | 48 | 1020.3 |
| 20260830191516 | 75 | 270 | 3.0 | 6.0 | 0.00 | 0.20 | 0.17 | 51 | 1020.2 |
| 20260830190516 | 75 | 315 | 3.0 | 9.0 | 0.00 | 0.20 | 0.17 | 53 | 1020.3 |
| 20260830185557 | 74 | 315 | 2.0 | 4.0 | 0.00 | 0.20 | 0.17 | 53 | 1020.1 |
| 20260830184516 | 74 | 315 | 1.0 | 5.0 | 0.00 | 0.20 | 0.17 | 54 | 1020.2 |
| 20260830183516 | 73 | 315 | 2.0 | 6.0 | 0.00 | 0.20 | 0.17 | 57 | 1020.3 |
| 20260830182516 | 73 | 315 | 3.0 | 7.0 | 0.00 | 0.20 | 0.17 | 55 | 1020.8 |
| 20260830181516 | 73 | 315 | 1.0 | 4.0 | 0.00 | 0.20 | 0.17 | 54 | 1020.3 |
| 20260830180516 | 73 | 270 | 2.0 | 6.0 | 0.00 | 0.20 | 0.17 | 55 | 1020.8 |
| 20260830175516 | 72 | 0 | 2.0 | 5.0 | 0.00 | 0.20 | 0.17 | 56 | 1020.5 |
| 20260830174516 | 71 | 270 | 2.0 | 4.0 | 0.00 | 0.20 | 0.17 | 58 | 1020.5 |
| 20260830173516 | 71 | 270 | 1.0 | 4.0 | 0.00 | 0.30 | 0.17 | 59 | 1020.6 |
| 20260830172516 | 70 | 270 | 2.0 | 6.0 | 0.00 | 0.41 | 0.17 | 59 | 1020.5 |
| 20260830171517 | 70 | 270 | 1.0 | 3.0 | 0.00 | 0.41 | 0.17 | 60 | 1020.5 |
| 20260830170516 | 69 | 248 | 3.0 | 5.0 | 0.00 | 0.42 | 0.17 | 60 | 1020.6 |
| 20260830165536 | 70 | 248 | 2.0 | 5.0 | 0.00 | 0.42 | 0.17 | 63 | 1020.9 |
| 20260830164516 | 70 | 90 | 1.0 | 3.0 | 0.00 | 0.42 | 0.17 | 55 | 1020.6 |
| 20260830163516 | 70 | 0.0 | 1.0 | 0.00 | 0.42 | 0.17 | 57 | 1020.6 | |
| 20260830162516 | 69 | 225 | 1.0 | 2.0 | 0.00 | 0.43 | 0.17 | 60 | 1019.5 |
| 20260830161516 | 68 | 0.0 | 2.0 | 0.00 | 0.43 | 0.17 | 60 | 1019.5 | |
| 20260830160536 | 69 | 135 | 2.0 | 5.0 | 0.00 | 0.43 | 0.17 | 60 | 1019.6 |
| 20260830155536 | 68 | 0.0 | 2.0 | 0.00 | 0.43 | 0.17 | 64 | 1019.6 | |
| 20260830154516 | 66 | 158 | 4.0 | 8.0 | 0.00 | 0.43 | 0.17 | 65 | 1019.2 |
| 20260830153516 | 65 | 113 | 4.0 | 8.0 | 0.00 | 0.43 | 0.17 | 68 | 1019.3 |
| 20260830152516 | 65 | 135 | 1.0 | 4.0 | 0.00 | 0.43 | 0.17 | 68 | 1018.8 |
| 20260830151516 | 64 | 113 | 7.0 | 13.0 | 0.00 | 0.43 | 0.17 | 66 | 1018.8 |
| 20260830150516 | 64 | 113 | 6.0 | 13.0 | 0.00 | 0.43 | 0.17 | 70 | 1018.9 |
| 20260830145516 | 62 | 113 | 9.0 | 15.0 | 0.00 | 0.43 | 0.17 | 69 | 1018.8 |
| 20260830144536 | 62 | 113 | 8.0 | 15.0 | 0.00 | 0.46 | 0.17 | 70 | 1018.7 |
| 20260830143516 | 61 | 113 | 11.0 | 18.0 | 0.00 | 0.49 | 0.17 | 72 | 1018.3 |
| 20260830142516 | 61 | 113 | 11.0 | 18.0 | 0.00 | 0.78 | 0.17 | 75 | 1018.1 |
| 20260830141516 | 61 | 113 | 12.0 | 22.0 | 0.00 | 0.83 | 0.17 | 74 | 1018.0 |
| 20260830140516 | 61 | 113 | 13.0 | 21.0 | 0.00 | 0.83 | 0.17 | 74 | 1018.0 |
| 20260830135516 | 61 | 113 | 13.0 | 20.0 | 0.00 | 0.83 | 0.17 | 73 | 1017.8 |
| 20260830134537 | 62 | 113 | 11.0 | 19.0 | 0.00 | 0.83 | 0.17 | 71 | 1018.2 |
| 20260830133516 | 62 | 113 | 12.0 | 21.0 | 0.00 | 0.83 | 0.17 | 71 | 1018.0 |
| 20260830132516 | 61 | 90 | 12.0 | 19.0 | 0.00 | 0.83 | 0.17 | 73 | 1018.3 |
| 20260830131536 | 61 | 90 | 11.0 | 19.0 | 0.00 | 0.83 | 0.17 | 73 | 1018.3 |
| 20260830130536 | 60 | 90 | 14.0 | 20.0 | 0.00 | 0.83 | 0.17 | 76 | 1017.9 |
| 20260830125516 | 61 | 90 | 11.0 | 20.0 | 0.00 | 0.83 | 0.17 | 76 | 1018.4 |
| 20260830124516 | 60 | 68 | 10.0 | 19.0 | 0.01 | 0.83 | 0.17 | 77 | 1018.4 |
| 20260830123516 | 59 | 90 | 12.0 | 20.0 | 0.17 | 0.83 | 0.17 | 83 | 1017.9 |
| 20260830122516 | 57 | 68 | 12.0 | 20.0 | 0.17 | 0.83 | 0.17 | 91 | 1017.5 |
| 20260830121536 | 57 | 90 | 13.0 | 22.0 | 0.17 | 0.83 | 0.17 | 91 | 1017.3 |
| 20260830120516 | 57 | 68 | 8.0 | 13.0 | 0.17 | 0.83 | 0.17 | 91 | 1017.1 |
| 20260830115516 | 57 | 90 | 6.0 | 13.0 | 0.17 | 0.83 | 0.17 | 90 | 1017.6 |
| 20260830114516 | 59 | 113 | 7.0 | 12.0 | 0.16 | 0.82 | 0.16 | 85 | 1018.5 |
| 20260830113516 | 65 | 68 | 2.0 | 9.0 | 0.00 | 0.66 | 0.00 | 62 | 1019.3 |
| 20260830112516 | 66 | 45 | 13.0 | 18.0 | 0.00 | 0.66 | 0.00 | 55 | 1017.5 |
| 20260830111516 | 65 | 68 | 13.0 | 21.0 | 0.00 | 0.66 | 0.00 | 56 | 1017.5 |
| 20260830110516 | 63 | 90 | 11.0 | 17.0 | 0.00 | 0.66 | 0.00 | 62 | 1017.6 |
| 20260830105516 | 63 | 113 | 8.0 | 16.0 | 0.00 | 0.66 | 0.00 | 61 | 1017.9 |
| 20260830104516 | 65 | 68 | 9.0 | 17.0 | 0.00 | 0.66 | 0.00 | 58 | 1018.3 |
| 20260830103516 | 64 | 113 | 5.0 | 13.0 | 0.00 | 0.67 | 0.00 | 62 | 1018.6 |
| 20260830102516 | 64 | 135 | 5.0 | 11.0 | 0.00 | 0.68 | 0.00 | 60 | 1019.0 |
| 20260830101517 | 63 | 90 | 6.0 | 11.0 | 0.00 | 0.68 | 0.00 | 61 | 1018.4 |
| 20260830100516 | 61 | 113 | 8.0 | 15.0 | 0.00 | 0.68 | 0.00 | 67 | 1018.1 |
| 20260830095516 | 60 | 113 | 2.0 | 8.0 | 0.00 | 0.68 | 0.00 | 71 | 1017.7 |
| 20260830094516 | 60 | 113 | 7.0 | 12.0 | 0.00 | 0.68 | 0.00 | 72 | 1018.3 |
| 20260830093516 | 61 | 0.0 | 0.0 | 0.00 | 0.68 | 0.00 | 69 | 1018.8 | |
| 20260830092516 | 61 | 90 | 5.0 | 14.0 | 0.00 | 0.68 | 0.00 | 69 | 1018.3 |
| 20260830091537 | 63 | 90 | 6.0 | 12.0 | 0.00 | 0.68 | 0.00 | 63 | 1018.3 |
| 20260830090516 | 62 | 113 | 9.0 | 16.0 | 0.00 | 0.68 | 0.00 | 67 | 1017.9 |
| 20260830085516 | 63 | 90 | 7.0 | 11.0 | 0.00 | 0.68 | 0.00 | 62 | 1018.6 |
| 20260830084516 | 62 | 113 | 11.0 | 18.0 | 0.00 | 0.68 | 0.00 | 66 | 1018.0 |
| 20260830083516 | 62 | 68 | 12.0 | 21.0 | 0.00 | 0.68 | 0.00 | 66 | 1017.8 |
| 20260830082516 | 63 | 68 | 10.0 | 18.0 | 0.00 | 0.68 | 0.00 | 62 | 1018.4 |
| 20260830081536 | 64 | 90 | 7.0 | 19.0 | 0.00 | 0.68 | 0.00 | 60 | 1018.0 |
| 20260830080516 | 62 | 113 | 8.0 | 14.0 | 0.00 | 0.68 | 0.00 | 67 | 1017.8 |
| 20260830075516 | 62 | 45 | 3.0 | 5.0 | 0.00 | 0.68 | 0.00 | 66 | 1017.0 |
| 20260830074516 | 62 | 90 | 6.0 | 12.0 | 0.00 | 0.68 | 0.00 | 67 | 1017.0 |
| 20260830073536 | 63 | 113 | 1.0 | 6.0 | 0.00 | 0.68 | 0.00 | 62 | 1017.1 |
| 20260830072517 | 63 | 23 | 2.0 | 7.0 | 0.00 | 0.68 | 0.00 | 65 | 1016.9 |
| 20260830071516 | 63 | 0 | 1.0 | 3.0 | 0.00 | 0.68 | 0.00 | 63 | 1017.1 |
| 20260830070536 | 63 | 113 | 4.0 | 8.0 | 0.00 | 0.68 | 0.00 | 65 | 1016.7 |
| 20260830065516 | 64 | 113 | 3.0 | 11.0 | 0.00 | 0.68 | 0.00 | 63 | 1016.0 |
| 20260830064516 | 65 | 113 | 3.0 | 14.0 | 0.00 | 0.68 | 0.00 | 60 | 1015.4 |
| 20260830063516 | 64 | 113 | 8.0 | 17.0 | 0.00 | 0.68 | 0.00 | 62 | 1015.0 |
| 20260830062516 | 64 | 113 | 13.0 | 18.0 | 0.00 | 0.68 | 0.00 | 64 | 1014.9 |
| 20260830061516 | 65 | 90 | 13.0 | 19.0 | 0.00 | 0.68 | 0.00 | 58 | 1015.0 |
| 20260830060516 | 65 | 90 | 11.0 | 21.0 | 0.00 | 0.68 | 0.00 | 57 | 1014.9 |
| 20260830055516 | 66 | 90 | 13.0 | 22.0 | 0.00 | 0.68 | 0.68 | 56 | 1015.9 |
| 20260830054557 | 66 | 113 | 11.0 | 23.0 | 0.00 | 0.68 | 0.68 | 57 | 1015.5 |